Flag for U.S.A. Weather past 2 weeks in Billings, Montana, U.S.A.

Now
63 °F

Passing clouds.


Feels Like: 63 °F
Forecast: 56 / 84 °F
Wind: 8 mph from Southwest

Location: Billings Logan International Airport

Current Time: Sep 18, 2014 at 4:18:33 AM

Latest Report: Sep 18, 2014 at 3:53 AM


Visibility: 10 mi

Pressure: 29.70 "Hg

Humidity: 56%

Dew point: 47 °F

Location of BillingsLocation

Historic Weather in Billings — Graph

°F

Billings temperature yesterday

Maximum temperature yesterday: 86 °F (at 2:53 PM)
Minimum temperature yesterday: 59 °F (at 4:53 AM)
Average temperature yesterday: 72 °F

Past Weeks' High & Low Weather Summary

 TemperatureHumidityPressure
High89 °F (Sep 8, 2:53 PM)97% (Sep 9, 11:53 PM)30.58 "Hg (Sep 9, 11:53 PM)
Low30 °F (Sep 12, 3:45 AM)8% (Sep 8, 2:53 PM)29.52 "Hg (Sep 3, 12:53 PM)
Average56 °F55%30.06 "Hg
* Reported Sep 3 2:53 AM — Sep 18 2:53 AM, Billings, Weather by CustomWeather, © 2014

Note: Actual official high and low records may vary slightly from our data, if they occured in-between our weather recording intervals... More about our weather records

Advertising

Billings weather history for previous 24 hours

 ConditionsComfort  
Time TempWeatherWind HumidityBarometerVisibility
2:53 AM
Sep 18
66 °FThunderstorms. Partly cloudy.12 mph49%29.71 "Hg10 mi
1:53 AM62 °FPassing clouds.10 mph62%29.74 "Hg10 mi
12:53 AM67 °FPassing clouds.7 mph49%29.75 "Hg10 mi
11:53 PM
Sep 17
64 °FPassing clouds.6 mph61%29.77 "Hg10 mi
10:53 PM69 °FPassing clouds.7 mph47%29.79 "Hg10 mi
9:53 PM68 °FPassing clouds.5 mph55%29.81 "Hg10 mi
8:53 PM73 °FPassing clouds.No wind44%29.81 "Hg10 mi
7:53 PM75 °FPartly sunny.13 mph36%29.81 "Hg10 mi
6:53 PM83 °FBroken clouds.3 mph26%29.76 "Hg10 mi
5:53 PM85 °FBroken clouds.3 mph23%29.75 "Hg10 mi
4:53 PM84 °FBroken clouds.No wind24%29.76 "Hg10 mi
3:53 PM86 °FScattered clouds.7 mph20%29.76 "Hg10 mi
2:53 PM86 °FScattered clouds.9 mph22%29.78 "Hg10 mi
1:53 PM84 °FScattered clouds.9 mph26%29.80 "Hg10 mi
12:53 PM82 °FScattered clouds.16 mph27%29.82 "Hg10 mi
11:53 AM80 °FScattered clouds.12 mph29%29.83 "Hg10 mi
10:53 AM75 °FPassing clouds.8 mph39%29.85 "Hg10 mi
9:53 AM70 °FScattered clouds.9 mph46%29.86 "Hg10 mi
8:53 AM66 °FScattered clouds.13 mph49%29.86 "Hg10 mi
7:53 AM61 °FPassing clouds.14 mph58%29.86 "Hg10 mi
6:53 AM62 °FPassing clouds.10 mph54%29.84 "Hg10 mi
5:53 AM65 °FPassing clouds.6 mph47%29.84 "Hg10 mi
4:53 AM59 °FPartly cloudy.9 mph58%29.83 "Hg10 mi
Weather by CustomWeather, © 2014

See weather overviewHow to use our weather pages